Location: Breungeshain
(50.5000°N, 9.2000°E)
Time: 20:43:43
(UTC+00:00)

ISS - Pass Details

Date: 23 May 2017
Orbit: 401 x 408 km, 51.6° (Epoch: 25 June)

Event Time Altitude Azimuth Distance (km) Brightness Sun altitude
Rises 02:20:10 0° 286° (WNW) 2,336 -0.2 -8.6°
Reaches altitude 10° 02:22:18 10° 280° (W) 1,471 -1.3 -8.4°
Maximum altitude 02:25:28 45° 207° (SSW) 562 -3.5 -8.0°
Drops below altitude 10° 02:28:37 10° 133° (SE) 1,459 -1.0 -7.7°
Sets 02:30:44 0° 127° (SE) 2,315 0.1 -7.4°
